Meteo pe oră la Almazne

Astăzi, 18 Ianuarie, Luni

Timp Temperatura Precipitaţii Vânt Presiune Umiditate
00:00 -12°C° 0.1 mm 5 m/s 757 mmHg 93%
01:00 -12°C° 0.1 mm 5 m/s 757 mmHg 93%
02:00 -12°C° 0 mm 4 m/s 758 mmHg 92%
03:00 -12°C° 0 mm 4 m/s 758 mmHg 92%
04:00 -12°C° 0 mm 4 m/s 758 mmHg 93%
05:00 -14°C° 0 mm 4 m/s 759 mmHg 93%
06:00 -14°C° 0 mm 4 m/s 759 mmHg 93%
07:00 -14°C° 0 mm 4 m/s 759 mmHg 92%
08:00 -14°C° 0 mm 4 m/s 759 mmHg 92%
09:00 -12°C° 0 mm 4 m/s 760 mmHg 88%
10:00 -12°C° 0 mm 4 m/s 760 mmHg 84%
11:00 -11°C° 0 mm 4 m/s 760 mmHg 80%
12:00 -9°C° 0 mm 3 m/s 760 mmHg 77%
13:00 -9°C° 0 mm 3 m/s 760 mmHg 74%
14:00 -7°C° 0 mm 2 m/s 760 mmHg 71%
15:00 -7°C° 0 mm 1 m/s 761 mmHg 73%
16:00 -8°C° 0 mm 1 m/s 761 mmHg 76%
17:00 -9°C° 0 mm 1 m/s 761 mmHg 78%
18:00 -8°C° 0 mm 1 m/s 761 mmHg 80%
19:00 -9°C° 0 mm 2 m/s 761 mmHg 81%
20:00 -8°C° 0 mm 2 m/s 761 mmHg 82%
21:00 -10°C° 0 mm 3 m/s 762 mmHg 86%
22:00 -10°C° 0 mm 3 m/s 762 mmHg 89%
23:00 -12°C° 0 mm 4 m/s 762 mmHg 93%

Mâine, 19 Ianuarie, Marţi

Timp Temperatura Precipitaţii Vânt Presiune Umiditate
00:00 -12°C° 0 mm 4 m/s 762 mmHg 93%
01:00 -12°C° 0 mm 3 m/s 762 mmHg 94%
02:00 -13°C° 0 mm 3 m/s 762 mmHg 94%
03:00 -13°C° 0 mm 3 m/s 762 mmHg 93%
04:00 -14°C° 0 mm 3 m/s 762 mmHg 93%
05:00 -14°C° 0 mm 3 m/s 763 mmHg 92%
06:00 -14°C° 0 mm 3 m/s 763 mmHg 91%
07:00 -14°C° 0 mm 3 m/s 763 mmHg 89%
08:00 -15°C° 0 mm 3 m/s 763 mmHg 87%
09:00 -13°C° 0 mm 3 m/s 764 mmHg 84%
10:00 -12°C° 0 mm 3 m/s 764 mmHg 81%
11:00 -11°C° 0 mm 4 m/s 764 mmHg 77%
12:00 -10°C° 0 mm 3 m/s 764 mmHg 77%
13:00 -9°C° 0 mm 3 m/s 764 mmHg 77%
14:00 -9°C° 0 mm 3 m/s 763 mmHg 77%
15:00 -10°C° 0 mm 3 m/s 764 mmHg 80%
16:00 -10°C° 0 mm 2 m/s 764 mmHg 83%
17:00 -12°C° 0 mm 2 m/s 764 mmHg 86%
18:00 -12°C° 0 mm 2 m/s 764 mmHg 87%
19:00 -12°C° 0 mm 2 m/s 765 mmHg 88%
20:00 -13°C° 0 mm 2 m/s 765 mmHg 90%
21:00 -13°C° 0 mm 2 m/s 765 mmHg 90%
22:00 -14°C° 0 mm 3 m/s 765 mmHg 91%
23:00 -14°C° 0 mm 3 m/s 765 mmHg 92%

Poimâine, 20 Ianuarie, Miercuri

Timp Temperatura Precipitaţii Vânt Presiune Umiditate
00:00 -13°C° 0 mm 2 m/s 765 mmHg 92%
01:00 -13°C° 0 mm 2 m/s 765 mmHg 92%
02:00 -13°C° 0 mm 2 m/s 765 mmHg 92%
03:00 -13°C° 0 mm 2 m/s 765 mmHg 91%
04:00 -13°C° 0 mm 2 m/s 765 mmHg 91%
05:00 -13°C° 0 mm 2 m/s 765 mmHg 91%
06:00 -10°C° 0 mm 1 m/s 766 mmHg 89%
07:00 -10°C° 0 mm 1 m/s 766 mmHg 87%
08:00 -9°C° 0 mm 1 m/s 766 mmHg 85%
09:00 -7°C° 0 mm 1 m/s 766 mmHg 83%
10:00 -6°C° 0 mm 1 m/s 766 mmHg 80%
11:00 -5°C° 0 mm 2 m/s 766 mmHg 77%
12:00 -4°C° 0 mm 2 m/s 766 mmHg 81%
13:00 -3°C° 0 mm 2 m/s 766 mmHg 85%
14:00 -3°C° 0 mm 2 m/s 765 mmHg 89%
15:00 -4°C° 0.2 mm 3 m/s 765 mmHg 91%
16:00 -4°C° 0.2 mm 3 m/s 765 mmHg 93%
17:00 -4°C° 0.2 mm 3 m/s 766 mmHg 95%
18:00 -5°C° 0.1 mm 3 m/s 766 mmHg 94%
19:00 -5°C° 0.1 mm 3 m/s 766 mmHg 92%
20:00 -5°C° 0.1 mm 3 m/s 766 mmHg 91%
21:00 -3°C° 0 mm 2 m/s 766 mmHg 90%
22:00 -3°C° 0 mm 2 m/s 766 mmHg 90%
23:00 -3°C° 0 mm 2 m/s 766 mmHg 89%

21 Ianuarie, Joi

Timp Temperatura Precipitaţii Vânt Presiune Umiditate
00:00 -2°C° 0 mm 2 m/s 765 mmHg 90%
01:00 -2°C° 0 mm 2 m/s 765 mmHg 91%
02:00 -2°C° 0 mm 2 m/s 765 mmHg 92%
03:00 -1°C° 0 mm 2 m/s 765 mmHg 91%
04:00 -1°C° 0 mm 2 m/s 765 mmHg 90%
05:00 +1°C° 0 mm 2 m/s 765 mmHg 89%
06:00 -1°C° 0.1 mm 3 m/s 765 mmHg 89%
07:00 -1°C° 0.1 mm 3 m/s 766 mmHg 88%
08:00 -2°C° 0.1 mm 4 m/s 766 mmHg 87%
09:00 0°C° 0 mm 3 m/s 766 mmHg 90%
10:00 +1°C° 0 mm 3 m/s 766 mmHg 94%
11:00 +2°C° 0 mm 3 m/s 766 mmHg 97%
12:00 +2°C° 0 mm 3 m/s 766 mmHg 97%
13:00 +3°C° 0 mm 3 m/s 766 mmHg 98%
14:00 +4°C° 0 mm 2 m/s 766 mmHg 98%
15:00 +4°C° 0 mm 2 m/s 766 mmHg 96%
16:00 +3°C° 0 mm 2 m/s 766 mmHg 94%
17:00 +3°C° 0 mm 2 m/s 766 mmHg 91%
18:00 +3°C° 0 mm 2 m/s 766 mmHg 90%
19:00 +2°C° 0 mm 3 m/s 766 mmHg 88%
20:00 +1°C° 0 mm 3 m/s 766 mmHg 86%
21:00 +1°C° 0 mm 3 m/s 766 mmHg 87%
22:00 +1°C° 0 mm 3 m/s 766 mmHg 87%
23:00 +1°C° 0 mm 3 m/s 766 mmHg 87%

22 Ianuarie, Vineri

Timp Temperatura Precipitaţii Vânt Presiune Umiditate
00:00 +1°C° 0 mm 3 m/s 766 mmHg 87%
01:00 +1°C° 0 mm 3 m/s 766 mmHg 87%
02:00 +1°C° 0 mm 3 m/s 766 mmHg 88%
03:00 +1°C° 0 mm 3 m/s 766 mmHg 87%
04:00 +1°C° 0 mm 3 m/s 766 mmHg 87%
05:00 +1°C° 0 mm 3 m/s 765 mmHg 86%
06:00 +2°C° 0 mm 3 m/s 765 mmHg 86%
07:00 +1°C° 0 mm 4 m/s 765 mmHg 85%
08:00 +1°C° 0 mm 4 m/s 766 mmHg 84%
09:00 +3°C° 0 mm 4 m/s 765 mmHg 86%
10:00 +4°C° 0 mm 4 m/s 765 mmHg 88%
11:00 +5°C° 0 mm 4 m/s 765 mmHg 90%
12:00 +5°C° 0 mm 4 m/s 764 mmHg 89%
13:00 +6°C° 0 mm 4 m/s 764 mmHg 88%
14:00 +6°C° 0 mm 4 m/s 764 mmHg 86%
15:00 +5°C° 0 mm 4 m/s 764 mmHg 86%
16:00 +4°C° 0 mm 4 m/s 763 mmHg 86%
17:00 +3°C° 0 mm 4 m/s 763 mmHg 86%
18:00 +3°C° 0 mm 4 m/s 763 mmHg 86%
19:00 +3°C° 0 mm 4 m/s 763 mmHg 86%
20:00 +2°C° 0 mm 5 m/s 763 mmHg 86%
21:00 +2°C° 0 mm 5 m/s 763 mmHg 85%
22:00 +2°C° 0 mm 5 m/s 763 mmHg 85%
23:00 +2°C° 0 mm 5 m/s 762 mmHg 85%

23 Ianuarie, Sâmbătă

Timp Temperatura Precipitaţii Vânt Presiune Umiditate
00:00 +2°C° 0 mm 5 m/s 762 mmHg 84%
01:00 +2°C° 0 mm 5 m/s 762 mmHg 84%
02:00 +3°C° 0 mm 4 m/s 762 mmHg 83%
03:00 +3°C° 0 mm 5 m/s 761 mmHg 83%
04:00 +3°C° 0 mm 5 m/s 761 mmHg 83%
05:00 +3°C° 0 mm 5 m/s 761 mmHg 82%
06:00 +3°C° 0 mm 5 m/s 761 mmHg 82%
07:00 +3°C° 0 mm 5 m/s 761 mmHg 82%
08:00 +3°C° 0 mm 5 m/s 761 mmHg 82%
09:00 +6°C° 0 mm 5 m/s 761 mmHg 79%
10:00 +7°C° 0 mm 5 m/s 761 mmHg 77%
11:00 +8°C° 0 mm 5 m/s 761 mmHg 75%
12:00 +9°C° 0 mm 5 m/s 761 mmHg 73%
13:00 +10°C° 0 mm 4 m/s 760 mmHg 72%
14:00 +11°C° 0 mm 4 m/s 760 mmHg 71%
15:00 +8°C° 0 mm 4 m/s 760 mmHg 73%
16:00 +7°C° 0 mm 4 m/s 760 mmHg 75%
17:00 +6°C° 0 mm 4 m/s 760 mmHg 77%
18:00 +6°C° 0 mm 4 m/s 760 mmHg 78%
19:00 +6°C° 0 mm 4 m/s 760 mmHg 79%
20:00 +6°C° 0 mm 4 m/s 760 mmHg 79%
21:00 +5°C° 0 mm 4 m/s 759 mmHg 80%
22:00 +5°C° 0 mm 4 m/s 759 mmHg 80%
23:00 +5°C° 0 mm 4 m/s 759 mmHg 81%
Arată mai mult

Formular de consimțământ

Meteoprog și furnizorii noștri de servicii pot stoca și accesa date personale, precum cookies, identificatori de dispozitiv sau alte tehnologii similare pe dispozitivul dumneavoastră și procesa astfel de date pentru a personaliza conținutul și reclamele, dar și pentru a oferi caracteristici de social media și pentru a analiza traficul.

  • Stocarea și/sau accesarea informațiilor pe dispozitivul dumneavoastră

    Cookies, identificatori de dispozitiv sau alte informații pot fi stocate sau accesate pe dispozitiv în scopurile indicate mai sus.

  • Reclame și conținut personalizat, evaluarea reclamelor și a conținutului, informații despre audiențe și dezvoltarea produselor

    Reclamele și conținutul pot fi personalizate pe baza unui profil. Pot fi adăugate date suplimentare pentru a personaliza mai bine reclamele și conținutul. Performanța reclamelor și conținutului poate fi măsurată. Pot fi obținute informații despre utilizatorii care au văzut reclamele și conținutul. Aceste date pot fi utilizate pentru a dezvolta sau îmbunătăți experiența utilizatorilor, sistemele și software-ul.

Dând clic pe ‘Sunt de acord’, permiteți utilizarea cookie-urilor menționate, a identificatorilor de dispozitiv, balizelor web sau altor tehnologii similare. Setările pot fi modificate din browser-ul dispozitivului dumneavoastră.

În anumite scopuri, interesele legitime pot prima asupra consimțământului. Puteți citi mai multe informații în acest sens în Politica privind Confidențialitatea Datelor și Cookie.